Location: Newark
(41.5333°N, 45.0000°E)
Time: 22:17:09
(UTC+00:00)

N. Korean satellite - Visible Passes

Search period start: 22 January 2020 00:00
Search period end: 01 February 2020 00:00
Orbit: 454 x 507 km, 97.2° (Epoch: 22 January)

Date Brightness Start Highest point End Pass type
(mag) Time Alt. Az. Time Alt. Az. Time Alt. Az.
22 Jan 8.3 02:20:36 10° NNE 02:23:51 33° E 02:27:07 10° SSE visible
22 Jan 8.4 14:29:22 10° SSW 14:32:31 34° W 14:35:41 10° NNW visible
23 Jan 9.6 01:55:55 10° NE 01:58:14 16° E 02:00:33 10° SE visible
23 Jan 7.4 03:28:32 10° N 03:31:39 29° WNW 03:34:48 10° SW visible
24 Jan 6.5 03:02:43 10° N 03:06:15 63° WNW 03:09:49 10° SSW visible
25 Jan 7.2 02:37:15 10° NNE 02:40:46 57° E 02:44:20 10° S visible
25 Jan 9.5 14:46:48 10° SW 14:49:27 21° W 14:52:07 10° NW visible
26 Jan 8.8 02:12:08 10° NE 02:15:12 26° E 02:18:18 10° SSE visible
26 Jan 8.0 03:45:50 10° NNW 03:48:25 19° WNW 03:51:01 10° WSW visible
27 Jan 9.9 01:47:46 10° ENE 01:49:33 13° E 01:51:20 10° ESE visible
27 Jan 7.1 03:19:44 10° N 03:23:04 37° WNW 03:26:26 10° SW visible
28 Jan 6.5 02:54:02 10° N 02:57:38 83° WNW 03:01:17 10° SSW visible
28 Jan 9.9 15:04:47 10° WSW 15:06:25 13° W 15:08:04 10° WNW visible
29 Jan 7.8 02:28:39 10° NNE 02:32:08 43° E 02:35:38 10° S visible
29 Jan 9.1 14:37:49 10° SSW 14:40:45 27° W 14:43:43 10° NW visible
30 Jan 9.3 02:03:42 10° NE 02:06:32 21° E 02:09:22 10° SE visible
30 Jan 7.7 03:36:54 10° NNW 03:39:50 24° WNW 03:42:48 10° SW visible
31 Jan 10.2 01:40:08 10° E 01:40:51 10° E 01:41:32 10° ESE visible
31 Jan 6.8 03:10:58 10° N 03:14:27 48° WNW 03:18:00 10° SSW visible
